Regional Weather Roundup
Issued by NWS Memphis, TN

Home | Current Version | Previous Version | Text Only | Print | Product List | Glossary On
Versions: 1 2 3 4 5 6 7 8 9 10 11 12 13 14 15 16 17 18 19 20 21 22 23 24 25 26 27 28 29 30 31 32 33 34 35 36 37 38 39 40 41 42 43 44 45 46 47 48 49 50
000
ASUS44 KMEG 290100
RWRMEG
MEMPHIS CWA HOURLY WEATHER ROUNDUP
NATIONAL WEATHER SERVICE MEMPHIS TN
800 PM CDT SAT MAY 28 2016

...WEST TENNESSEE...

CITY           SKY/WX    TMP DP  RH WIND       PRES   REMARKS
MEMPHIS INTL   CLOUDY    80  69  69 S5        30.03R
NWS MEMPHIS      N/A     79 N/A N/A MISG        N/A
JACKSON        MOCLDY    73  69  87 CALM      30.04S
LEXINGTON      CLEAR     73  66  78 E3        30.05S
DYERSBURG      CLOUDY    79  64  61 S8        30.02S
UNION CITY     CLEAR     75  64  69 SE8       30.02S
PARIS          PTCLDY    73  66  78 S3        30.06R


...EASTERN ARKANSAS...

CITY           SKY/WX    TMP DP  RH WIND       PRES   REMARKS
JONESBORO      CLEAR     79  69  71 S8        30.00S
WEST MEMPHIS   PTCLDY    79  70  74 S3        30.01R
BATESVILLE     CLEAR     77  66  69 SE6       29.99S
WALNUT RIDGE   CLEAR     79  66  65 S8        29.99R
BLYTHEVILLE    MOCLDY    80  71  74 S6        30.02R
SEARCY         CLEAR     75  70  83 S5        30.01S
STUTTGART      CLEAR     81  63  54 S5        30.01S
PINE BLUFF     CLEAR     78  68  71 SW3       30.01R
MONTICELLO     CLEAR     80  70  71 CALM      30.02R


...NORTH MISSISSIPPI...

CITY           SKY/WX    TMP DP  RH WIND       PRES   REMARKS
TUPELO         CLOUDY    73  69  87 N3        30.05R
OLIVE BRANCH   MOCLDY    77  72  83 SE7       30.04R
TUNICA         CLOUDY    77  70  78 S3        30.03R
CLARKSDALE     PTCLDY    79  72  78 S5        30.03R
GREENWOOD      CLOUDY    79  64  60 SE5       30.04R
STARKVILLE     CLOUDY    75  68  78 CALM      30.05R


...SOUTHEAST MISSOURI...

CITY           SKY/WX    TMP DP  RH WIND       PRES   REMARKS
KENNETT        MOCLDY    79  73  83 S6        30.00R
WEST PLAINS    CLEAR     75  65  70 CALM      30.02R
POPLAR BLUFF   CLOUDY    79  70  74 S8        29.99R
CAPE GIRARDEAU MOCLDY    76  69  79 S7        29.99S


...NORTHWEST ALABAMA...

CITY           SKY/WX    TMP DP  RH WIND       PRES   REMARKS
MUSCLE SHOALS  CLOUDY    78  65  63 CALM      30.08R


...MIDDLE TENNESSEE...

CITY           SKY/WX    TMP DP  RH WIND       PRES   REMARKS
NASHVILLE      MOCLDY    77  60  55 SW6       30.09R
CLARKSVILLE    CLOUDY    76  66  71 S6        30.05S
COLUMBIA       CLEAR     77  72  83 SE3       30.07S


...WESTERN KENTUCKY...

CITY           SKY/WX    TMP DP  RH WIND       PRES   REMARKS
PADUCAH        CLOUDY    78  66  66 S5        30.01R


...CENTRAL ARKANSAS...

CITY           SKY/WX    TMP DP  RH WIND       PRES   REMARKS
LITTLE ROCK    PTCLDY    78  66  66 S6        30.00R


SKY/WX REPORTED AS FAIR MEANS FEW OR NO CLOUDS BELOW
12 THOUSAND FEET.





USA.gov is the U.S. government's official web portal to all federal, state and local government web resources and services.